N1LID Weather Reports


time (UTC)temp
C
wind
direction
speed
KPH
gust
KPH
rain 1hr
cm
rain 24hr
cm
rain mn
cm
humidity
%
barometer
mb
20260507101522 12 158 0.0 4.8 0.00 0.56 0.33 84 1011.2
20260507101009 12 246 0.0 8.0 0.00 0.56 0.33 85 1011.2
20260507100506 13 301 0.0 8.0 0.00 0.56 0.33 85 1011.3
20260507100004 13 79 1.6 8.0 0.00 0.56 0.33 86 1011.0
20260507095504 13 265 0.0 0.0 0.00 0.56 0.33 86 1010.7
20260507095002 13 270 0.0 0.0 0.00 0.56 0.33 86 1010.8
20260507094503 13 270 0.0 11.3 0.00 0.56 0.33 86 1010.9
20260507094003 13 269 0.0 11.3 0.00 0.56 0.33 86 1010.7
20260507093503 13 45 0.0 9.7 0.00 0.56 0.33 87 1010.4
20260507093007 13 81 1.6 9.7 0.00 0.56 0.33 87 1010.5
20260507092503 13 73 0.0 0.0 0.00 0.56 0.33 87 1010.8
20260507092005 13 73 0.0 6.4 0.00 0.56 0.33 87 1010.9
20260507091514 13 73 0.0 6.4 0.00 0.56 0.33 87 1010.8
20260507091008 13 327 0.0 6.4 0.00 0.56 0.33 87 1010.7
20260507090504 13 329 0.0 6.4 0.00 0.56 0.33 87 1010.9
20260507090030 13 259 0.0 6.4 0.00 0.56 0.33 87 1010.6
20260507085505 13 131 0.0 3.2 0.00 0.56 0.33 88 1010.6
20260507085004 13 104 0.0 0.0 0.00 0.56 0.33 88 1010.6
20260507084503 13 105 0.0 0.0 0.00 0.56 0.33 88 1010.4
20260507084005 13 105 0.0 0.0 0.00 0.56 0.33 88 1010.4
20260507083503 13 78 0.0 3.2 0.00 0.56 0.33 88 1010.4
20260507083010 13 78 0.0 3.2 0.00 0.56 0.33 88 1010.1
20260507082503 13 58 0.0 3.2 0.00 0.56 0.33 88 1010.0
20260507082007 14 112 0.0 3.2 0.00 0.56 0.33 88 1010.0
20260507081515 14 54 0.0 3.2 0.00 0.56 0.33 88 1010.0
20260507081006 14 96 0.0 3.2 0.00 0.56 0.33 88 1010.3
20260507080510 14 340 0.0 3.2 0.00 0.56 0.33 88 1010.3
20260507080018 14 340 0.0 6.4 0.00 0.56 0.33 88 1010.3
20260507075507 14 341 0.0 8.0 0.00 0.56 0.33 88 1010.4
20260507075007 14 346 0.0 8.0 0.00 0.56 0.33 88 1010.4
20260507074515 15 346 0.0 8.0 0.00 0.56 0.33 88 1010.6
20260507074003 15 28 0.0 0.0 0.00 0.56 0.33 88 1010.1
20260507073503 15 38 0.0 0.0 0.00 0.56 0.33 88 1010.1
20260507073004 15 48 0.0 0.0 0.00 0.56 0.33 88 1010.0
20260507072505 15 48 0.0 0.0 0.00 0.56 0.33 88 1010.0
20260507072002 15 48 0.0 0.0 0.00 0.56 0.33 87 1009.8
20260507071510 15 51 0.0 0.0 0.00 0.56 0.33 88 1009.7
20260507071003 15 107 0.0 0.0 0.03 0.56 0.33 87 1009.5
20260507070504 16 110 0.0 0.0 0.03 0.56 0.33 88 1009.4
20260507070020 16 111 0.0 0.0 0.03 0.56 0.33 88 1009.3
20260507065508 16 107 0.0 0.0 0.03 0.56 0.33 88 1009.1
20260507065006 16 43 0.0 0.0 0.03 0.56 0.33 88 1009.0
20260507064508 16 43 0.0 0.0 0.03 0.56 0.33 88 1008.8
20260507064003 17 169 0.0 0.0 0.03 0.56 0.33 88 1008.6
20260507063504 17 228 0.0 0.0 0.05 0.56 0.33 88 1008.3
20260507063016 17 228 0.0 0.0 0.05 0.56 0.33 88 1008.6
20260507062503 17 228 0.0 0.0 0.08 0.56 0.33 88 1008.7
20260507062007 17 228 0.0 0.0 0.25 0.56 0.33 88 1008.5
20260507061508 17 227 0.0 0.0 0.33 0.56 0.33 88 1008.8
20260507061004 17 227 0.0 0.0 0.30 0.53 0.30 88 1008.8
20260507060504 17 227 0.0 0.0 0.30 0.53 0.30 87 1009.2
20260507060012 17 227 0.0 0.0 0.30 0.53 0.30 87 1009.2
20260507055506 17 227 0.0 0.0 0.30 0.53 0.30 87 1009.2
20260507055003 17 227 0.0 0.0 0.30 0.53 0.30 87 1009.3
20260507054510 17 227 0.0 0.0 0.30 0.53 0.30 87 1009.3
20260507054004 17 227 0.0 0.0 0.30 0.53 0.30 87 1009.3
20260507053504 17 227 0.0 0.0 0.28 0.51 0.28 87 1009.4
20260507053015 17 227 0.0 0.0 0.28 0.51 0.28 86 1009.4
20260507052508 17 227 0.0 0.0 0.25 0.48 0.25 86 1009.5
20260507052008 17 227 0.0 0.0 0.08 0.30 0.08 86 1009.4
20260507051533 17 227 0.0 0.0 0.00 0.23 0.00 85 1009.5
20260507051007 17 227 0.0 0.0 0.00 0.23 0.00 85 1009.5
20260507050508 17 227 0.0 0.0 0.00 0.23 0.00 85 1009.5
20260507050011 17 227 0.0 0.0 0.00 0.23 0.00 85 1009.4
20260507045503 17 227 0.0 0.0 0.00 0.23 0.00 85 1009.3
20260507045004 17 227 0.0 0.0 0.00 0.23 0.00 85 1009.3
20260507044517 17 227 0.0 0.0 0.00 0.23 0.00 85 1009.4
20260507044007 17 227 0.0 0.0 0.00 0.23 0.00 85 1009.4
20260507043506 17 227 0.0 0.0 0.00 0.23 0.00 85 1009.3
20260507043016 17 227 0.0 0.0 0.00 0.23 0.00 85 1009.3
20260507042506 17 227 0.0 0.0 0.00 0.23 0.00 85 1009.3
20260507042007 17 227 0.0 0.0 0.00 0.23 0.00 85 1009.4
20260507041522 17 227 0.0 0.0 0.00 0.23 0.00 85 1009.3
20260507041009 17 227 0.0 0.0 0.00 0.23 0.00 85 1009.2
20260507040509 17 227 0.0 0.0 0.00 0.23 0.00 85 1009.4
20260507040027 17 227 0.0 0.0 0.00 0.23 0.00 85 1009.5
20260507035510 17 227 0.0 0.0 0.00 0.23 0.23 85 1009.6
20260507035011 17 227 0.0 0.0 0.00 0.23 0.23 84 1009.6
20260507034516 17 227 0.0 0.0 0.00 0.23 0.23 84 1009.6
20260507034004 17 227 0.0 0.0 0.00 0.23 0.23 84 1009.6
20260507033504 17 227 0.0 0.0 0.00 0.23 0.23 84 1009.4
20260507033020 17 227 0.0 0.0 0.00 0.23 0.23 84 1009.2
20260507032506 17 227 0.0 0.0 0.00 0.23 0.23 84 1009.1
20260507032002 17 227 0.0 0.0 0.00 0.23 0.23 83 1008.8
20260507031505 18 227 0.0 0.0 0.00 0.23 0.23 83 1008.7
20260507031003 18 227 0.0 0.0 0.00 0.23 0.23 83 1008.8
20260507030504 18 227 0.0 0.0 0.00 0.23 0.23 83 1008.8
20260507030004 17 227 0.0 0.0 0.00 0.23 0.23 83 1008.7
20260507025502 17 227 0.0 0.0 0.00 0.23 0.23 83 1008.8
20260507025003 17 227 0.0 0.0 0.00 0.23 0.23 83 1008.8
20260507024521 17 227 0.0 0.0 0.00 0.23 0.23 83 1008.9
20260507024004 18 227 0.0 0.0 0.00 0.23 0.23 83 1008.8
20260507023503 18 227 0.0 0.0 0.00 0.23 0.23 83 1009.0
20260507023015 18 227 0.0 0.0 0.00 0.23 0.23 83 1009.0
20260507022503 18 227 0.0 0.0 0.00 0.23 0.23 83 1009.3
20260507022006 18 227 0.0 0.0 0.00 0.23 0.23 82 1009.5
20260507021503 18 227 0.0 0.0 0.00 0.23 0.23 82 1009.6
20260507021006 18 227 0.0 0.0 0.00 0.23 0.23 82 1009.6
20260507020503 18 227 0.0 0.0 0.00 0.23 0.23 82 1009.6
20260507020003 18 227 0.0 0.0 0.00 0.23 0.23 82 1009.5
20260507015506 18 227 0.0 0.0 0.00 0.23 0.23 82 1009.4
20260507015002 18 227 0.0 0.0 0.00 0.23 0.23 81 1009.4
20260507014510 18 227 0.0 0.0 0.00 0.23 0.23 81 1009.2
20260507014004 18 227 0.0 0.0 0.00 0.23 0.23 81 1009.2
20260507013504 18 227 0.0 0.0 0.00 0.23 0.23 81 1009.2
20260507013012 18 227 0.0 0.0 0.00 0.23 0.23 80 1009.3
20260507012503 18 227 0.0 0.0 0.00 0.23 0.23 80 1009.2
20260507012003 18 240 0.0 0.0 0.00 0.23 0.23 80 1009.2
20260507011504 19 240 0.0 0.0 0.00 0.23 0.23 80 1009.2
20260507011004 19 240 0.0 0.0 0.00 0.23 0.23 80 1009.4
20260507010504 19 240 0.0 0.0 0.00 0.23 0.23 80 1009.4
20260507010017 19 240 0.0 6.4 0.00 0.23 0.23 79 1009.3
20260507005503 19 240 0.0 8.0 0.00 0.23 0.23 79 1009.2
20260507005003 19 240 1.6 14.5 0.00 0.23 0.23 79 1009.1
20260507004503 19 237 1.6 14.5 0.00 0.23 0.23 79 1009.1
20260507004005 20 217 0.0 0.0 0.00 0.23 0.23 79 1009.2
20260507003504 20 216 0.0 0.0 0.00 0.23 0.23 79 1009.2
20260507003015 20 237 0.0 0.0 0.00 0.23 0.23 79 1009.2
20260507002504 20 235 0.0 11.3 0.00 0.23 0.23 79 1009.2
20260507002007 20 235 0.0 11.3 0.00 0.23 0.23 78 1009.1
20260507001511 20 225 3.2 12.9 0.00 0.23 0.23 78 1009.0
20260507001005 20 252 0.0 12.9 0.00 0.23 0.23 78 1008.9
20260507000505 20 238 1.6 12.9 0.00 0.23 0.23 77 1009.0
20260507000012 20 240 0.0 12.9 0.00 0.23 0.23 77 1008.8
20260506235507 20 246 1.6 14.5 0.00 0.23 0.23 77 1008.9
20260506235005 20 234 4.8 14.5 0.00 0.23 0.23 77 1008.9
20260506234518 20 229 3.2 14.5 0.00 0.23 0.23 77 1008.8
20260506234008 20 252 1.6 14.5 0.00 0.23 0.23 77 1008.9
20260506233502 20 230 3.2 11.3 0.00 0.23 0.23 76 1008.9
20260506233003 20 255 1.6 14.5 0.00 0.23 0.23 76 1008.9
20260506232505 20 152 1.6 17.7 0.00 0.23 0.23 76 1008.8
20260506232003 21 215 3.2 19.3 0.00 0.23 0.23 76 1008.8
20260506231508 21 257 9.7 19.3 0.00 0.23 0.23 76 1008.7
20260506231005 21 238 6.4 17.7 0.00 0.23 0.23 76 1008.7
20260506230505 21 250 8.0 17.7 0.00 0.23 0.23 76 1008.7
20260506230016 21 237 6.4 14.5 0.00 0.23 0.23 76 1008.7
20260506225505 21 241 4.8 16.1 0.00 0.23 0.23 76 1008.7
20260506225007 21 246 9.7 16.1 0.00 0.23 0.23 76 1008.9
20260506224522 21 222 3.2 16.1 0.00 0.23 0.23 76 1008.7
20260506224007 21 250 4.8 20.9 0.00 0.23 0.23 76 1008.6
20260506223507 21 225 8.0 20.9 0.00 0.23 0.23 76 1008.7
20260506223022 21 246 3.2 22.5 0.00 0.23 0.23 76 1008.7
20260506222504 21 251 8.0 22.5 0.00 0.23 0.23 76 1008.8
20260506222004 21 360 8.0 22.5 0.00 0.23 0.23 76 1008.7
20260506221507 21 254 6.4 20.9 0.00 0.23 0.23 76 1008.8
20260506221004 20 255 11.3 20.9 0.00 0.23 0.23 76 1008.9
20260506220506 20 249 4.8 19.3 0.00 0.23 0.23 76 1008.9
20260506220014 20 254 6.4 19.3 0.00 0.23 0.23 76 1008.9
20260506215504 20 244 11.3 19.3 0.00 0.23 0.23 76 1009.1
20260506215005 20 185 4.8 19.3 0.00 0.23 0.23 76 1009.1
20260506214520 20 220 6.4 16.1 0.00 0.23 0.23 76 1009.1
20260506214007 20 238 6.4 20.9 0.00 0.23 0.23 76 1009.1
20260506213507 20 225 11.3 20.9 0.00 0.23 0.23 75 1009.1
20260506213023 20 237 9.7 19.3 0.00 0.23 0.23 76 1009.0
20260506212506 20 235 8.0 20.9 0.00 0.23 0.23 76 1009.0
20260506212006 20 236 9.7 22.5 0.00 0.23 0.23 75 1009.1
20260506211512 20 243 3.2 22.5 0.00 0.23 0.23 76 1009.1
20260506211007 20 238 11.3 24.1 0.00 0.23 0.23 76 1009.1
20260506210502 20 248 9.7 24.1 0.00 0.23 0.23 76 1009.1
20260506210014 20 233 9.7 22.5 0.00 0.23 0.23 76 1009.0
20260506205507 20 227 1.6 24.1 0.00 0.23 0.23 77 1009.0
20260506205004 20 258 6.4 24.1 0.00 0.23 0.23 77 1009.0
20260506204518 20 221 8.0 22.5 0.00 0.23 0.23 77 1008.9
20260506204003 20 248 11.3 22.5 0.00 0.23 0.23 77 1008.9
20260506203508 20 246 0.0 19.3 0.00 0.23 0.23 77 1008.8
20260506203026 20 149 0.0 22.5 0.00 0.23 0.23 77 1008.8
20260506202503 20 360 8.0 22.5 0.00 0.23 0.23 77 1009.0
20260506202007 20 209 3.2 20.9 0.00 0.23 0.23 77 1009.0
20260506201523 20 223 9.7 20.9 0.00 0.23 0.23 77 1008.8
20260506201006 20 221 4.8 20.9 0.00 0.23 0.23 77 1009.0
20260506200504 20 246 6.4 17.7 0.00 0.23 0.23 78 1009.0
20260506200021 20 202 8.0 14.5 0.00 0.23 0.23 78 1009.0
20260506195509 20 209 0.0 19.3 0.00 0.23 0.23 78 1009.3
20260506195004 20 247 0.0 19.3 0.00 0.23 0.23 78 1009.5
20260506194512 20 222 3.2 19.3 0.00 0.23 0.23 77 1009.4
20260506194005 20 227 1.6 20.9 0.00 0.23 0.23 77 1009.4
20260506193505 20 360 6.4 20.9 0.00 0.23 0.23 77 1009.4
20260506193018 20 221 3.2 14.5 0.00 0.23 0.23 78 1009.4
20260506192504 20 261 1.6 19.3 0.00 0.23 0.23 77 1009.4
20260506192006 20 241 6.4 22.5 0.00 0.23 0.23 77 1009.4
20260506191518 20 214 6.4 22.5 0.00 0.23 0.23 77 1009.5
20260506191006 20 188 4.8 27.4 0.00 0.23 0.23 77 1009.7
20260506190506 19 226 9.7 27.4 0.00 0.23 0.23 77 1009.7
20260506190023 19 229 9.7 22.5 0.00 0.23 0.23 77 1009.6
20260506185508 19 250 11.3 24.1 0.00 0.23 0.23 77 1009.7
20260506185011 19 257 8.0 24.1 0.00 0.23 0.23 78 1009.8
20260506184527 19 229 6.4 29.0 0.00 0.23 0.23 78 1010.0
20260506184009 19 237 9.7 29.0 0.00 0.23 0.23 78 1010.0
20260506183506 19 257 4.8 19.3 0.00 0.23 0.23 78 1010.2
20260506183017 19 232 11.3 20.9 0.00 0.23 0.23 78 1010.2
20260506182505 19 232 4.8 22.5 0.00 0.23 0.23 80 1010.1
20260506182004 18 274 11.3 24.1 0.00 0.23 0.23 79 1010.1
20260506181518 18 243 9.7 25.7 0.00 0.23 0.23 80 1010.1
20260506181011 18 211 12.9 25.7 0.00 0.23 0.23 80 1010.2
20260506180507 18 260 9.7 20.9 0.00 0.23 0.23 82 1010.2
20260506180006 18 246 8.0 22.5 0.00 0.23 0.23 82 1010.2
20260506175504 18 211 4.8 22.5 0.00 0.23 0.23 83 1010.3
20260506175002 18 242 6.4 22.5 0.00 0.23 0.23 84 1010.3
20260506174507 17 253 4.8 20.9 0.00 0.23 0.23 84 1010.6
20260506174002 17 242 8.0 16.1 0.00 0.23 0.23 85 1010.5
20260506173502 17 204 4.8 25.7 0.03 0.23 0.23 85 1010.5
20260506173012 17 240 4.8 25.7 0.03 0.23 0.23 85 1010.5
20260506172503 17 210 8.0 17.7 0.03 0.23 0.23 85 1010.5
20260506172006 17 178 4.8 19.3 0.03 0.23 0.23 86 1010.4
20260506171520 17 360 8.0 19.3 0.03 0.23 0.23 86 1010.5
20260506171003 17 228 8.0 19.3 0.05 0.23 0.23 86 1010.4
20260506170502 17 223 1.6 24.1 0.05 0.23 0.23 86 1010.4
20260506170003 17 205 0.0 24.1 0.08 0.23 0.23 86 1010.4
20260506165502 17 360 4.8 19.3 0.10 0.23 0.23 86 1010.8
20260506165007 17 360 6.4 20.9 0.15 0.23 0.23 86 1010.6
20260506164504 16 217 9.7 20.9 0.18 0.23 0.23 86 1010.8
20260506164002 16 222 0.0 19.3 0.18 0.23 0.23 86 1010.5
20260506163503 16 259 6.4 20.9 0.18 0.20 0.20 85 1010.6
20260506163009 16 273 9.7 25.7 0.18 0.20 0.20 85 1010.7
20260506162505 16 229 9.7 25.7 0.18 0.20 0.20 85 1010.9
20260506162010 16 247 6.4 17.7 0.18 0.20 0.20 85 1011.0
20260506161514 16 204 6.4 22.5 0.18 0.20 0.20 84 1011.1
20260506161007 16 240 8.0 20.9 0.18 0.18 0.18 84 1011.2
20260506160503 17 360 6.4 19.3 0.18 0.18 0.18 83 1011.2
20260506160004 17 223 9.7 20.9 0.15 0.15 0.15 82 1011.4
20260506155504 17 261 6.4 20.9 0.13 0.13 0.13 81 1011.5
20260506155006 17 201 9.7 19.3 0.08 0.08 0.08 81 1011.6
20260506154504 17 251 8.0 17.7 0.05 0.05 0.05 80 1011.6
20260506154004 17 207 4.8 20.9 0.05 0.05 0.05 79 1011.6
20260506153503 17 241 1.6 20.9 0.03 0.03 0.03 78 1011.6
20260506153006 18 278 4.8 29.0 0.03 0.03 0.03 78 1011.8
20260506152503 18 260 8.0 29.0 0.03 0.03 0.03 77 1011.7
20260506152003 18 201 6.4 19.3 0.03 0.03 0.03 77 1011.8
20260506151511 18 15 8.0 17.7 0.03 0.03 0.03 76 1011.8
20260506151002 18 360 6.4 25.7 0.00 0.00 0.00 75 1011.8
20260506150505 18 236 9.7 25.7 0.00 0.00 0.00 74 1012.0
20260506150008 18 250 11.3 24.1 0.00 0.00 0.00 74 1011.9
20260506145503 18 236 3.2 20.9 0.00 0.00 0.00 74 1011.8
20260506145003 18 360 3.2 16.1 0.00 0.00 0.00 74 1011.8
20260506144529 18 235 4.8 17.7 0.00 0.00 0.00 74 1011.8
20260506144006 19 230 9.7 17.7 0.00 0.00 0.00 73 1011.8
20260506143508 19 252 0.0 19.3 0.00 0.00 0.00 73 1011.7
20260506143004 19 241 9.7 22.5 0.00 0.00 0.00 72 1011.6
20260506142504 19 261 3.2 22.5 0.00 0.00 0.00 72 1011.6
20260506142002 19 241 4.8 17.7 0.00 0.00 0.00 72 1011.6
20260506141508 19 256 6.4 17.7 0.00 0.00 0.00 72 1011.6
20260506141004 19 223 8.0 16.1 0.00 0.00 0.00 71 1011.6
20260506140503 19 229 6.4 17.7 0.00 0.00 0.00 71 1011.6
20260506140008 19 260 9.7 20.9 0.00 0.00 0.00 70 1011.8
20260506135503 19 221 8.0 25.7 0.00 0.00 0.00 70 1011.7
20260506135003 19 194 9.7 25.7 0.00 0.00 0.00 70 1011.8
20260506134516 19 236 9.7 19.3 0.00 0.00 0.00 70 1011.8
20260506134008 19 249 8.0 17.7 0.00 0.00 0.00 71 1011.7
20260506133506 19 214 4.8 22.5 0.00 0.00 0.00 70 1011.7
20260506133024 19 195 6.4 24.1 0.00 0.00 0.00 71 1011.6
20260506132514 19 246 8.0 24.1 0.00 0.00 0.00 70 1011.6
20260506132012 19 246 6.4 17.7 0.00 0.00 0.00 71 1011.7
20260506131508 19 259 8.0 17.7 0.00 0.00 0.00 71 1011.5
20260506131003 19 260 4.8 19.3 0.00 0.00 0.00 71 1011.4
20260506130504 19 257 11.3 19.3 0.00 0.00 0.00 71 1011.6
20260506130012 19 247 4.8 29.0 0.00 0.00 0.00 71 1011.6
20260506125505 19 200 12.9 29.0 0.00 0.00 0.00 71 1011.6
20260506125005 18 238 8.0 22.5 0.00 0.00 0.00 72 1011.6
20260506124515 18 249 9.7 22.5 0.00 0.00 0.00 71 1011.6
20260506124007 18 242 9.7 22.5 0.00 0.00 0.00 72 1011.4
20260506123507 18 261 6.4 22.5 0.00 0.00 0.00 72 1011.4
20260506123033 18 242 9.7 22.5 0.00 0.00 0.00 72 1011.5
20260506122508 18 169 9.7 22.5 0.00 0.00 0.00 72 1011.6
20260506122007 18 250 4.8 22.5 0.00 0.00 0.00 72 1011.7
20260506121524 18 246 9.7 20.9 0.00 0.00 0.00 72 1011.8
20260506121003 18 234 8.0 25.7 0.00 0.00 0.00 72 1011.8
20260506120504 18 231 6.4 25.7 0.00 0.00 0.00 72 1011.9
20260506120013 18 239 8.0 25.7 0.00 0.00 0.00 72 1011.9
20260506115504 18 225 11.3 20.9 0.00 0.00 0.00 72 1011.9
20260506115003 18 259 6.4 29.0 0.00 0.00 0.00 72 1011.8
20260506114518 18 250 9.7 29.0 0.00 0.00 0.00 72 1011.7
20260506114007 18 226 9.7 30.6 0.00 0.00 0.00 72 1011.7
20260506113508 18 240 8.0 30.6 0.00 0.00 0.00 72 1011.8
20260506113018 18 257 12.9 24.1 0.00 0.00 0.00 72 1011.8
20260506112508 18 260 9.7 27.4 0.00 0.00 0.00 72 1011.6
20260506112007 18 251 11.3 27.4 0.00 0.00 0.00 72 1011.4
20260506111521 17 250 9.7 20.9 0.00 0.00 0.00 72 1011.6
20260506111003 17 213 11.3 20.9 0.00 0.00 0.00 72 1011.6
20260506110506 17 244 8.0 19.3 0.00 0.00 0.00 72 1011.5
20260506110015 17 237 6.4 19.3 0.00 0.00 0.00 72 1011.5
20260506105506 17 245 4.8 17.7 0.00 0.00 0.00 72 1011.4
20260506105008 17 233 6.4 19.3 0.00 0.00 0.00 72 1011.6
20260506104526 17 235 9.7 19.3 0.00 0.00 0.00 72 1011.5
20260506104004 17 208 3.2 20.9 0.00 0.00 0.00 72 1011.5
20260506103504 17 238 9.7 20.9 0.00 0.00 0.00 72 1011.5
20260506103016 17 240 6.4 19.3 0.00 0.00 0.00 72 1011.4
20260506102507 17 360 9.7 20.9 0.00 0.00 0.00 72 1011.3
20260506102007 17 225 8.0 20.9 0.00 0.00 0.00 72 1011.3